Changshagaoxin (43669 NORAD) Tracking and Keplerian Element Data

This shows tracking and keplerian element data for the satellite.

Feedback or suggestion? Click here.




ElementValue
Catalog43669
NameChangshagaoxin
Epoch Orbit2587
Epoch Day107.96704927
Epoch Year2019
RAAN132.3469
Inclination97.5116
Eccentricity0.0012063
Argument of Perigee42.1214
Mean Anonmoly318.0944
Mean Motion15.16692184
Decay Rate1.009E-05
L11 43669U 18083H 19107.96704927 .00001009 00000-0 54887-4 0 9996
L22 43669 097.5116 132.3469 0012063 042.1214 318.0944 15.16692184025877

Live tracking and technical data element details for Changshagaoxin (NORAD 43669). Changshagaoxin can be tracked NOW for your location showing map with azimuth and elevation plus other details from your city location.

Track the satellite on the map from your city or location and see movement details for azimuth, elevation, latitude, longitude, range, height, and movement on the map or in text.







IsCatalogInMostPopularTable: catalog: 43669, numindb: 85
Update: records affected: 1



GetName: 43669 Changshagaoxin

Hit Count: updated at: Tue, 23 Apr 2019 19:58:19 GMT